sat.trackr.live / text

‹ back to catalog

COSMOS 2565

NORAD 54381 · 2022-163A

PAYLOAD ACTIVE UNKNOWN

§ Identity

Operator
Country
CIS
Launch date
2022-11-30
Launch site
PLMSC
Launch vehicle
Mass (kg)
RCS (m²)

External: N2YO · Heavens-Above · Gunter

§ Orbital elements

Epoch: 2026-09-20T23:10:24.940416Z

Period
103.10 min
Inclination
67.1475°
Eccentricity
0.0006668
Mean motion
13.96675252 rev/d
Perigee alt
900.5 km
Apogee alt
910.2 km
Semi-major
7,283.5 km
B*
1.4835e-5
RAAN
234.4681°
Arg perigee
266.4524°
Mean anomaly
93.5798°
Rev number
19,414

§ Raw data

COSMOS 25651 54381U 22163A   26263.96556644 -.00000055  00000+0  14835-4 0  99942 54381  67.1475 234.4681 0006668 266.4524  93.5798 13.96675252194142

JSON: /api/v1/satellites/54381 · /tle

For live sub-satellite position, see the globe view (requires WebGL).

§ Visibility from observer

Set your observer location to see the next 7 days of passes ≥ 10°. The values pass through the URL so the page stays shareable.

No JS? Fill the form by hand. The geolocation button needs JavaScript.